Home > Time Zones > World Clock > Weather > India > Thane > Past weeks

Flag for India Weather past 2 weeks in Thane, Maharashtra, India

Now
82 °F

Passing clouds.


Feels Like: 94 °F
Forecast: 77 / 87 °F
Wind: No wind

Location: Bombay / Santacruz

Current Time: Aug 21, 2014 at 6:23:29 AM

Latest Report: Aug 21, 2014 at 5:10 AM


Visibility: 2 mi

Pressure: 29.68 "Hg

Humidity: 94%

Dew point: 81 °F

Location of ThaneLocation

Historic Weather in Thane — Graph

°F

Thane temperature yesterday

Maximum temperature yesterday: 86 °F (at 3:40 PM)
Minimum temperature yesterday: 82 °F (at 12:40 AM)
Average temperature yesterday: 83 °F

Past Weeks' High & Low Weather Summary

 TemperatureHumidityPressure
High88 °F (Aug 14, 12:40 PM)100% (Aug 6, 8:40 PM)29.86 "Hg (Aug 6, 8:40 PM)
Low77 °F (Aug 9, 8:40 AM)66% (Aug 17, 12:40 PM)29.59 "Hg (Aug 6, 4:40 AM)
Average83 °F85%29.74 "Hg
* Reported Aug 6 4:40 AM — Aug 21 4:40 AM, Thane, Weather by CustomWeather, © 2014

Note: Actual official high and low records may vary slightly from our data, if they occured in-between our weather recording intervals... More about our weather records

Advertising

Thane weather history for previous 24 hours

 ConditionsComfort  
Time TempWeatherWind HumidityBarometerVisibility
4:40 AM
Aug 21
82 °FPassing clouds.3 mph94%29.68 "Hg2 mi
4:10 AM82 °FPassing clouds.3 mph94%29.68 "Hg2 mi
3:40 AM82 °FPassing clouds.5 mph94%29.68 "Hg2 mi
3:10 AM82 °FPassing clouds.3 mph89%29.68 "Hg2 mi
2:40 AM82 °FPassing clouds.3 mph89%29.68 "Hg2 mi
2:10 AM84 °FPassing clouds.5 mph84%29.68 "Hg2 mi
1:40 AM84 °FPartly cloudy.5 mph84%29.68 "Hg2 mi
1:10 AM84 °FPassing clouds.5 mph84%29.71 "Hg2 mi
12:40 AM84 °FPassing clouds.6 mph84%29.71 "Hg2 mi
12:10 AM84 °FPassing clouds.7 mph84%29.71 "Hg2 mi
11:40 PM
Aug 20
84 °FPassing clouds.3 mph84%29.74 "Hg2 mi
11:10 PM84 °FPassing clouds.5 mph84%29.74 "Hg2 mi
10:40 PM84 °FPassing clouds.6 mph84%29.74 "Hg2 mi
10:10 PM84 °FPassing clouds.6 mph84%29.74 "Hg2 mi
9:40 PM84 °FPassing clouds.6 mph84%29.74 "Hg2 mi
9:10 PM84 °FPassing clouds.5 mph84%29.74 "Hg2 mi
8:40 PM84 °FPartly cloudy.6 mph84%29.74 "Hg2 mi
8:10 PM84 °FPartly cloudy.7 mph84%29.74 "Hg2 mi
7:40 PM84 °FPartly cloudy.7 mph84%29.74 "Hg2 mi
7:10 PM84 °FBroken clouds.9 mph84%29.71 "Hg2 mi
6:40 PM84 °FBroken clouds.7 mph84%29.71 "Hg2 mi
5:40 PM86 °FPartly sunny.12 mph79%29.71 "Hg2 mi
5:10 PM86 °FBroken clouds.13 mph79%29.68 "Hg2 mi
4:40 PM86 °FBroken clouds.13 mph79%29.71 "Hg2 mi
4:10 PM86 °FBroken clouds.12 mph79%29.71 "Hg2 mi
3:40 PM86 °FBroken clouds.12 mph79%29.71 "Hg2 mi
3:10 PM84 °FBroken clouds.10 mph79%29.74 "Hg2 mi
2:40 PM84 °FBroken clouds.8 mph79%29.74 "Hg2 mi
2:10 PM84 °FBroken clouds.10 mph79%29.77 "Hg2 mi
1:10 PM84 °FMore clouds than sun.7 mph89%29.77 "Hg1 mi
12:40 PM82 °FDrizzle. More clouds than sun.7 mph89%29.80 "Hg1 mi
12:10 PM82 °FDrizzle. More clouds than sun.9 mph89%29.80 "Hg1 mi
11:40 AM82 °FDrizzle. More clouds than sun.7 mph89%29.80 "Hg1 mi
11:10 AM82 °FDrizzle. More clouds than sun.7 mph94%29.80 "Hg1 mi
10:40 AM82 °FLight rain. More clouds than sun.6 mph94%29.80 "Hg1 mi
10:10 AM84 °FLight rain. Broken clouds.6 mph89%29.80 "Hg1 mi
9:40 AM82 °FBroken clouds.6 mph94%29.80 "Hg2 mi
8:40 AM82 °FBroken clouds.3 mph94%29.80 "Hg1 mi
8:10 AM82 °FBroken clouds.7 mph94%29.80 "Hg1 mi
7:40 AM82 °FBroken clouds.No wind94%29.80 "Hg1 mi
7:10 AM82 °FBroken clouds.No wind94%29.77 "Hg1 mi
6:40 AM82 °FPartly cloudy.No wind94%29.77 "Hg1 mi
6:10 AM82 °FPassing clouds.No wind89%29.77 "Hg1 mi
Weather by CustomWeather, © 2014

See weather overviewHow to use our weather pages